Location: Home
(42.5358°N, 72.7383°W)
Time: 06:28:05
(UTC-04:00)

COSMOS 2251 DEB - Pass Details

Date: 03 July 2022
Orbit: 769 x 1233 km, 74.1° (Epoch: 15 August)

Event Time Altitude Azimuth Distance (km) Brightness Sun altitude
Exits shadow 01:06:19 30° 121° (ESE) 1,640 ? -24.5°
Maximum altitude 01:07:39 33° 97° (E) 1,577 ? -24.4°
Drops below altitude 10° 01:13:25 10° 37° (NE) 2,867 ? -24.4°
Sets 01:16:25 0° 28° (NNE) 3,901 ? -24.3°
